{"data":{"norad_id":60179,"epoch":"2026-05-25T02:42:21.686400Z","epoch_age_seconds":65016,"freshness":"FRESH","line1":"1 60179U 24122A   26145.11275100 -.00000316  00000+0  00000+0 0  9998","line2":"2 60179   0.0423 114.1634 0001340 322.5169 308.2149  1.00271518  7076","mean_motion":1.00271518,"eccentricity":0.000134,"inclination_deg":0.0423,"raan_deg":114.1634,"arg_perigee_deg":322.5169,"mean_anomaly_deg":308.2149,"bstar":0,"rev_number":707,"period_min":1436.1007280253,"perigee_km":35781.019727036,"apogee_km":35792.319895262,"semimajor_km":42164.806811149,"source":"CELESTRAK","updated_at":"2026-05-25T13:38:14.146322Z"}}